Overview Statistics Trail Chart Weather Telemetry Raw packets
 

This is the latest recevied weather packets stored in our database for station/object G4KVI. If no packets are shown the sender has not sent any weather packets the latest 10 day(s).

<< 104 105 106 107 108 >>
Time Temp. Humidity Pressure Rain* Wind** Luminosity Snow
1787811906 17.78° C 94% 1009.4 hPa 0 mm - 22 W/m² -
1787811604 17.78° C 94% 1009.4 hPa 0 mm - 19 W/m² -
1787811304 17.78° C 94% 1009.5 hPa 0 mm - 17 W/m² -
1787811004 17.78° C 94% 1009.2 hPa 0 mm - 12 W/m² -
1787810704 17.78° C 94% 1009.5 hPa 0 mm - 17 W/m² -
1787810404 17.78° C 94% 1009.7 hPa 0 mm - 12 W/m² -
1787810104 17.78° C 94% 1009.4 hPa 0 mm - 6 W/m² -
1787809804 17.78° C 94% 1009.5 hPa 0 mm - 6 W/m² -
1787809504 17.78° C 94% 1009.6 hPa 0 mm - 6 W/m² -
1787809204 17.78° C 94% 1009.6 hPa 1.52 mm - 5 W/m² -
1787808904 17.78° C 94% 1009.5 hPa 3.05 mm - 4 W/m² -
1787808604 17.78° C 94% 1009.3 hPa 3.3 mm - 3 W/m² -
1787808304 17.78° C 93% 1009.4 hPa 4.83 mm - 2 W/m² -
1787808004 17.78° C 93% 1009.6 hPa 5.08 mm - 1 W/m² -
1787807704 17.78° C 93% 1009.6 hPa 5.33 mm - 0 W/m² -
1787807403 17.78° C 93% 1009.7 hPa 5.33 mm - 0 W/m² -
1787807103 17.78° C 93% 1009.7 hPa 5.84 mm - 0 W/m² -
1787806804 17.78° C 93% 1009.6 hPa 6.35 mm - 0 W/m² -
1787806504 17.78° C 93% 1009.5 hPa 6.86 mm - 0 W/m² -
1787806207 17.78° C 92% 1009.9 hPa 7.37 mm - 0 W/m² -
1787805904 17.78° C 92% 1009.8 hPa 8.13 mm - 0 W/m² -
1787805604 17.78° C 92% 1010.1 hPa 7.11 mm - 0 W/m² -
1787805304 17.78° C 92% 1010.1 hPa 6.35 mm - 0 W/m² -
1787805003 17.78° C 91% 1009.9 hPa 6.6 mm - 0 W/m² -
1787804703 17.78° C 91% 1010.3 hPa 5.33 mm - 0 W/m² -

* Rain latest hour (hover to see other rain measurements)
** Current wind speed in m/s (hover to see current wind gust speed)